GW5670 Weather Reports


Display with metric or nautical units.
time (UTC)temp
F
wind
direction
speed
MPH
gust
MPH
rain 1hr
in
rain 24hr
in
rain mn
in
humidity
%
barometer
mb
20260507121038 51 88 1.0 2.0 0.00 0.01 0.01 68 1015.9
20260507120534 51 100 2.0 2.0 0.00 0.01 0.01 67 1016.0
20260507120032 51 89 0.0 0.0 0.00 0.01 0.01 68 1016.0
20260507115528 51 90 0.0 2.0 0.00 0.01 0.01 65 1016.0
20260507115024 51 90 0.0 0.0 0.00 0.01 0.01 66 1015.9
20260507114520 50 82 0.0 2.0 0.00 0.01 0.01 67 1016.2
20260507114017 50 92 2.0 2.0 0.00 0.01 0.01 68 1016.0
20260507113514 50 81 1.0 3.0 0.00 0.01 0.01 67 1015.9
20260507113011 50 95 0.0 2.0 0.00 0.01 0.01 69 1015.9
20260507112509 50 85 1.0 2.0 0.00 0.01 0.01 69 1016.0
20260507112006 50 89 2.0 2.0 0.00 0.01 0.01 69 1015.9
20260507111503 50 85 1.0 2.0 0.00 0.01 0.01 70 1016.0
20260507110959 50 83 0.0 0.0 0.00 0.01 0.01 71 1015.8
20260507110455 50 89 0.0 0.0 0.00 0.01 0.01 70 1015.9
20260507105952 50 75 0.0 0.0 0.00 0.01 0.01 69 1015.8
20260507105449 50 77 0.0 0.0 0.00 0.01 0.01 67 1015.8
20260507104945 50 80 0.0 0.0 0.00 0.01 0.01 67 1015.6
20260507104443 50 93 3.0 3.0 0.00 0.01 0.01 66 1015.4
20260507103938 50 84 1.0 2.0 0.00 0.01 0.01 66 1015.4
20260507103435 50 104 3.0 3.0 0.00 0.01 0.01 66 1015.4
20260507102931 50 101 2.0 3.0 0.00 0.01 0.01 67 1015.4
20260507102428 50 105 2.0 3.0 0.00 0.01 0.01 67 1015.5
20260507101925 51 85 0.0 0.0 0.00 0.01 0.01 70 1015.4
20260507101420 51 102 2.0 3.0 0.00 0.01 0.01 67 1015.3
20260507100916 51 96 1.0 2.0 0.00 0.01 0.01 69 1014.9
20260507100414 51 86 0.0 2.0 0.00 0.01 0.01 69 1014.9
20260507095912 51 105 3.0 3.0 0.00 0.01 0.01 69 1014.9
20260507095409 51 82 1.0 2.0 0.00 0.01 0.01 68 1014.8
20260507094906 51 72 1.0 2.0 0.00 0.01 0.01 69 1014.8
20260507094402 51 92 0.0 0.0 0.00 0.01 0.01 70 1014.9
20260507093859 51 103 2.0 3.0 0.00 0.01 0.01 70 1014.9
20260507093358 51 167 2.0 5.0 0.00 0.01 0.01 71 1015.0
20260507092856 51 129 4.0 5.0 0.00 0.01 0.01 70 1015.0
20260507092351 51 79 5.0 8.0 0.00 0.01 0.01 71 1015.0
20260507091848 51 90 1.0 2.0 0.00 0.01 0.01 73 1014.8
20260507091344 51 74 3.0 6.0 0.00 0.01 0.01 74 1015.0
20260507090840 52 111 2.0 5.0 0.00 0.01 0.01 78 1014.9
20260507090336 51 126 6.0 8.0 0.00 0.01 0.01 77 1014.9
20260507085834 51 84 3.0 6.0 0.00 0.01 0.01 81 1014.5
20260507085330 51 124 5.0 6.0 0.00 0.01 0.01 83 1014.7
20260507084828 51 94 1.0 2.0 0.00 0.01 0.01 85 1014.6
20260507084324 51 90 2.0 3.0 0.00 0.01 0.01 85 1014.5
20260507083822 51 145 2.0 3.0 0.00 0.01 0.01 86 1014.7
20260507083318 51 102 3.0 3.0 0.00 0.01 0.01 85 1014.7
20260507082814 51 91 0.0 0.0 0.00 0.01 0.01 85 1014.5
20260507082310 51 101 5.0 6.0 0.00 0.01 0.01 85 1014.4
20260507081808 51 89 1.0 2.0 0.00 0.01 0.01 85 1014.2
20260507081303 51 97 1.0 3.0 0.00 0.01 0.01 85 1014.1
20260507080800 51 82 0.0 2.0 0.00 0.01 0.01 85 1014.0
20260507080257 51 108 0.0 0.0 0.00 0.01 0.01 85 1014.1
20260507075751 51 64 3.0 3.0 0.00 0.01 0.01 85 1014.1
20260507075248 51 105 3.0 3.0 0.00 0.01 0.01 84 1014.1
20260507074744 51 97 2.0 3.0 0.00 0.01 0.01 85 1014.1
20260507074243 51 98 0.0 0.0 0.00 0.01 0.01 86 1014.3
20260507073739 52 81 0.0 0.0 0.00 0.01 0.01 86 1014.0
20260507073235 52 79 1.0 2.0 0.00 0.01 0.01 86 1013.9
20260507072733 52 74 0.0 0.0 0.00 0.01 0.01 87 1014.1
20260507072230 52 131 1.0 2.0 0.00 0.01 0.01 87 1013.9
20260507071728 52 82 0.0 0.0 0.00 0.01 0.01 88 1014.3
20260507071224 52 78 2.0 3.0 0.00 0.01 0.01 87 1014.3
20260507070721 52 85 0.0 0.0 0.00 0.01 0.01 86 1014.2
20260507070218 52 91 0.0 2.0 0.00 0.01 0.01 86 1014.3
20260507065714 52 105 3.0 3.0 0.00 0.01 0.01 86 1014.4
20260507065211 52 88 2.0 2.0 0.00 0.01 0.01 86 1014.5
20260507064709 52 76 0.0 0.0 0.00 0.01 0.01 86 1014.4
20260507064208 52 82 0.0 0.0 0.00 0.01 0.01 86 1014.2
20260507063705 53 94 2.0 3.0 0.00 0.01 0.01 86 1014.0
20260507063201 53 108 5.0 6.0 0.05 0.01 0.01 85 1014.2
20260507062658 53 87 2.0 3.0 0.05 0.01 0.01 84 1014.3
20260507062156 53 101 2.0 3.0 0.00 0.00 0.00 83 1014.4
20260507061654 53 89 0.0 0.0 0.00 0.00 0.00 82 1014.5
20260507061151 54 80 5.0 5.0 0.00 0.00 0.00 82 1014.5
20260507060649 54 128 4.0 6.0 0.00 0.00 0.00 82 1014.3
20260507060145 54 83 1.0 3.0 0.00 0.00 0.00 82 1014.5
20260507055641 54 75 2.0 3.0 0.00 0.00 0.00 83 1014.4
20260507055137 54 93 2.0 2.0 0.00 0.00 0.00 84 1013.8
20260507054633 54 91 2.0 3.0 0.00 0.00 0.00 84 1014.2
20260507054130 54 86 1.0 2.0 0.00 0.00 0.00 83 1014.4
20260507053628 54 92 1.0 2.0 0.00 0.00 0.00 84 1014.1
20260507053126 54 108 4.0 5.0 0.00 0.00 0.00 84 1014.4
20260507052624 54 85 0.0 0.0 0.00 0.00 0.00 86 1014.3
20260507052120 54 122 0.0 3.0 0.00 0.00 0.00 86 1014.2
20260507051618 54 131 3.0 3.0 0.00 0.00 0.00 86 1014.1
20260507051115 54 95 3.0 5.0 0.00 0.00 0.00 87 1014.3
20260507050611 54 85 2.0 3.0 0.00 0.00 0.00 87 1014.3
20260507050108 55 80 0.0 0.0 0.00 0.00 0.00 87 1014.2
20260507045605 55 86 2.0 3.0 0.00 0.00 0.00 87 1014.3
20260507045102 55 88 1.0 2.0 0.00 0.00 0.00 87 1013.9
20260507044558 55 109 3.0 3.0 0.00 0.00 0.00 87 1014.7
20260507044056 55 87 0.0 0.0 0.00 0.00 0.00 88 1014.8
20260507043551 55 87 0.0 0.0 0.00 0.00 0.00 87 1014.6
20260507043049 55 84 4.0 5.0 0.00 0.00 0.00 88 1014.5
20260507042544 55 88 0.0 0.0 0.00 0.00 0.00 88 1014.4
20260507042040 55 102 2.0 2.0 0.00 0.00 0.00 88 1014.0
20260507041537 55 90 1.0 2.0 0.00 0.00 0.00 88 1013.9
20260507041034 55 83 0.0 0.0 0.00 0.00 0.00 88 1013.8
20260507040531 55 105 4.0 5.0 0.00 0.00 0.00 88 1014.0
20260507040026 56 119 4.0 5.0 0.07 0.20 0.20 89 1014.0
20260507035523 56 14 2.0 3.0 0.07 0.20 0.20 89 1013.8
20260507035020 56 86 0.0 2.0 0.05 0.19 0.19 89 1014.0
20260507034516 56 85 0.0 0.0 0.12 0.19 0.19 88 1014.1
20260507034014 57 84 0.0 0.0 0.07 0.18 0.18 87 1014.0
20260507033512 57 83 4.0 5.0 0.00 0.17 0.17 85 1014.0
20260507033009 58 81 1.0 2.0 0.00 0.17 0.17 84 1013.7
20260507032506 58 86 1.0 2.0 0.00 0.17 0.17 83 1013.7
20260507032002 58 83 0.0 0.0 0.00 0.17 0.17 83 1013.7
20260507031458 58 91 0.0 0.0 0.00 0.17 0.17 83 1013.7
20260507030955 58 82 0.0 0.0 0.00 0.17 0.17 83 1013.8
20260507030452 58 83 0.0 0.0 0.00 0.17 0.17 82 1013.7
20260507025950 58 74 1.0 3.0 0.00 0.17 0.17 82 1013.9
20260507025447 58 101 3.0 5.0 0.00 0.17 0.17 82 1013.5
20260507024944 58 72 3.0 5.0 0.00 0.17 0.17 83 1013.5
20260507024442 58 99 0.0 2.0 0.00 0.17 0.17 82 1013.1
20260507023937 58 83 0.0 0.0 0.00 0.17 0.17 83 1013.3
20260507023434 58 87 5.0 6.0 0.00 0.17 0.17 83 1013.2
20260507022931 59 95 2.0 3.0 0.00 0.17 0.17 84 1013.4
20260507022429 59 103 3.0 3.0 0.00 0.17 0.17 83 1013.2
20260507021924 59 85 4.0 5.0 0.00 0.17 0.17 83 1013.2
20260507021419 59 81 0.0 0.0 0.00 0.17 0.17 84 1013.1
20260507020918 59 65 3.0 5.0 0.00 0.17 0.17 84 1013.2
20260507020414 59 99 1.0 2.0 0.00 0.17 0.17 84 1013.2
20260507015911 59 107 1.0 2.0 0.00 0.17 0.17 84 1013.2
20260507015409 59 117 10.0 13.0 0.00 0.17 0.17 84 1013.3
20260507014906 60 102 6.0 8.0 0.00 0.17 0.17 86 1013.4
20260507014402 60 88 2.0 3.0 0.00 0.17 0.17 87 1013.0
20260507013859 60 119 0.0 2.0 0.00 0.17 0.17 87 1013.1
20260507013356 60 99 3.0 5.0 0.00 0.17 0.17 88 1013.0
20260507012853 61 109 4.0 5.0 0.00 0.17 0.17 88 1012.8
20260507012349 61 133 2.0 5.0 0.05 0.17 0.17 89 1013.2
20260507011841 61 120 1.0 2.0 0.05 0.17 0.17 89 1013.3
20260507011338 62 67 2.0 3.0 0.00 0.16 0.16 89 1013.5
20260507010837 62 82 3.0 5.0 0.00 0.16 0.16 89 1013.4
20260507010333 62 99 1.0 2.0 0.00 0.16 0.16 88 1013.1
20260507005830 62 93 2.0 3.0 0.00 0.16 0.16 88 1013.4
20260507005327 62 82 2.0 3.0 0.00 0.16 0.16 88 1013.1
20260507004824 63 109 4.0 6.0 0.00 0.16 0.16 88 1013.1
20260507004321 63 85 1.0 2.0 0.00 0.16 0.16 87 1012.9
20260507003818 62 53 3.0 3.0 0.00 0.16 0.16 87 1013.1
20260507003313 62 80 0.0 2.0 0.00 0.16 0.16 87 1013.1
20260507002808 63 69 1.0 2.0 0.00 0.16 0.16 87 1012.8
20260507002306 63 43 2.0 2.0 0.00 0.16 0.16 85 1012.6
20260507001802 64 56 4.0 5.0 0.00 0.16 0.16 84 1012.7
20260507001300 64 102 2.0 3.0 0.00 0.16 0.16 83 1012.8
20260507000756 64 75 1.0 2.0 0.00 0.16 0.16 82 1012.7
20260507000252 64 67 2.0 3.0 0.00 0.16 0.16 82 1012.5
20260506235748 64 65 0.0 2.0 0.00 0.16 0.16 81 1012.3
20260506235244 65 66 3.0 5.0 0.00 0.16 0.16 81 1012.5
20260506234741 65 133 9.0 11.0 0.00 0.16 0.16 82 1012.2
20260506234238 66 79 1.0 2.0 0.00 0.16 0.16 83 1011.8
20260506233736 66 74 1.0 2.0 0.00 0.16 0.16 83 1012.0
20260506233232 66 78 1.0 2.0 0.00 0.16 0.16 82 1011.5
20260506232729 66 69 2.0 3.0 0.00 0.16 0.16 81 1011.6
20260506232224 66 75 0.0 0.0 0.00 0.16 0.16 81 1011.5
20260506231721 67 76 0.0 0.0 0.00 0.16 0.16 81 1011.5
20260506231220 67 67 1.0 3.0 0.00 0.16 0.16 81 1011.4
20260506230716 67 37 4.0 5.0 0.00 0.16 0.16 80 1011.4
20260506230213 67 65 4.0 6.0 0.00 0.16 0.16 79 1011.3
20260506225709 67 81 0.0 0.0 0.00 0.16 0.16 79 1011.5
20260506225206 67 83 0.0 2.0 0.00 0.16 0.16 80 1011.6
20260506224703 67 59 2.0 3.0 0.00 0.16 0.16 79 1011.5
20260506224200 67 53 3.0 5.0 0.00 0.16 0.16 79 1011.5
20260506223656 68 65 1.0 2.0 0.00 0.16 0.16 79 1011.3
20260506223152 68 117 3.0 3.0 0.00 0.16 0.16 78 1011.3
20260506222649 67 84 3.0 3.0 0.00 0.16 0.16 79 1011.3
20260506222145 68 37 4.0 5.0 0.00 0.16 0.16 78 1011.6
20260506221643 68 72 1.0 2.0 0.00 0.16 0.16 78 1011.5
20260506221141 67 44 5.0 6.0 0.00 0.16 0.16 78 1011.5
20260506220637 67 56 5.0 6.0 0.00 0.16 0.16 79 1011.5
20260506220132 67 74 2.0 2.0 0.00 0.16 0.16 79 1011.8
20260506215629 67 35 2.0 2.0 0.00 0.16 0.16 79 1011.4
20260506215124 67 60 2.0 3.0 0.00 0.16 0.16 79 1011.3
20260506214622 67 34 4.0 6.0 0.00 0.16 0.16 78 1011.5
20260506214119 67 37 4.0 5.0 0.00 0.16 0.16 78 1011.5
20260506213617 67 85 0.0 0.0 0.00 0.16 0.16 78 1011.4
20260506213114 67 66 3.0 3.0 0.00 0.16 0.16 78 1011.3
20260506212611 67 46 2.0 3.0 0.00 0.16 0.16 78 1011.2
20260506212106 67 48 1.0 2.0 0.00 0.16 0.16 79 1011.3
20260506211602 67 72 1.0 2.0 0.00 0.16 0.16 79 1011.3
20260506211059 67 54 2.0 3.0 0.00 0.16 0.16 78 1011.2
20260506210556 67 76 0.0 2.0 0.00 0.16 0.16 78 1011.0
20260506210052 67 53 4.0 6.0 0.00 0.16 0.16 77 1011.0
20260506205549 68 73 1.0 2.0 0.00 0.16 0.16 78 1010.8
20260506205044 68 81 3.0 3.0 0.00 0.16 0.16 77 1010.9
20260506204543 68 28 3.0 6.0 0.00 0.16 0.16 77 1010.9
20260506204039 68 77 2.0 5.0 0.00 0.16 0.16 76 1011.0
20260506203538 68 25 6.0 6.0 0.00 0.16 0.16 77 1010.9
20260506203034 67 77 2.0 2.0 0.00 0.16 0.16 77 1011.0
20260506202531 67 41 5.0 6.0 0.00 0.16 0.16 77 1011.1
20260506202028 67 69 3.0 5.0 0.00 0.16 0.16 77 1011.0
20260506201526 67 95 2.0 3.0 0.00 0.16 0.16 77 1011.1
20260506201022 67 41 4.0 5.0 0.00 0.16 0.16 77 1011.3
20260506200518 67 73 1.0 2.0 0.00 0.16 0.16 78 1011.3
20260506200015 68 21 5.0 6.0 0.00 0.16 0.16 77 1011.2
20260506195512 68 17 3.0 3.0 0.00 0.16 0.16 77 1011.0
20260506195008 67 13 6.0 8.0 0.00 0.16 0.16 78 1011.0
20260506194506 67 62 4.0 5.0 0.00 0.16 0.16 78 1011.1
20260506194002 68 43 4.0 5.0 0.00 0.16 0.16 77 1011.2
20260506193459 68 332 5.0 6.0 0.00 0.16 0.16 77 1011.2
20260506192956 68 67 1.0 3.0 0.00 0.16 0.16 76 1011.0
20260506192453 68 351 10.0 13.0 0.00 0.16 0.16 76 1011.0
20260506191949 67 317 11.0 13.0 0.00 0.16 0.16 77 1011.0
20260506191446 67 31 5.0 5.0 0.00 0.16 0.16 78 1011.1
20260506190942 66 7 6.0 10.0 0.00 0.16 0.16 78 1011.2
20260506190439 66 23 9.0 11.0 0.00 0.16 0.16 78 1011.3
20260506185936 66 14 4.0 8.0 0.00 0.16 0.16 78 1011.2
20260506185434 66 180 5.0 6.0 0.00 0.16 0.16 79 1011.3
20260506184931 66 2 6.0 11.0 0.00 0.16 0.16 80 1011.5
20260506184427 65 61 3.0 6.0 0.00 0.16 0.16 80 1011.5
20260506183925 65 17 5.0 6.0 0.00 0.16 0.16 81 1011.5
20260506183420 65 294 6.0 8.0 0.00 0.16 0.16 81 1011.6
20260506182918 65 27 7.0 8.0 0.00 0.16 0.16 81 1011.6
20260506182415 65 241 8.0 10.0 0.00 0.16 0.16 80 1011.5
20260506181912 65 66 2.0 3.0 0.00 0.16 0.16 80 1011.3
20260506181410 65 7 8.0 10.0 0.00 0.16 0.16 81 1011.6
20260506180906 64 278 9.0 10.0 0.00 0.16 0.16 81 1011.4
20260506180403 64 22 10.0 14.0 0.00 0.16 0.16 82 1011.6
20260506175900 64 337 9.0 11.0 0.00 0.16 0.16 82 1011.6
20260506175356 64 356 14.0 18.0 0.00 0.16 0.16 82 1011.8
20260506174853 63 27 6.0 6.0 0.00 0.16 0.16 83 1012.0
20260506174351 63 344 13.0 16.0 0.00 0.16 0.16 83 1011.9
20260506173848 63 334 7.0 10.0 0.00 0.16 0.16 83 1012.0
20260506173344 63 33 6.0 8.0 0.00 0.16 0.16 84 1011.8
20260506172842 63 15 6.0 10.0 0.00 0.16 0.16 84 1011.8
20260506172338 63 317 6.0 10.0 0.00 0.16 0.16 84 1012.0
20260506171835 62 31 2.0 3.0 0.00 0.16 0.16 85 1011.8
20260506171333 62 221 5.0 6.0 0.00 0.16 0.16 85 1011.6
20260506170830 63 17 8.0 10.0 0.00 0.16 0.16 85 1012.0
20260506170326 62 60 9.0 13.0 0.00 0.16 0.16 85 1011.9
20260506165825 62 349 9.0 13.0 0.00 0.16 0.16 85 1011.8
20260506165323 62 323 18.0 21.0 0.00 0.16 0.16 86 1012.0
20260506164819 62 9 8.0 10.0 0.00 0.16 0.16 87 1011.8
20260506164315 61 323 6.0 10.0 0.00 0.16 0.16 87 1011.8
20260506163813 61 312 7.0 13.0 0.00 0.16 0.16 87 1011.9
20260506163307 61 95 6.0 10.0 0.00 0.16 0.16 87 1011.8
20260506162803 61 9 9.0 14.0 0.00 0.16 0.16 87 1012.0
20260506162301 61 0 12.0 14.0 0.00 0.16 0.16 88 1012.0
20260506161758 61 5 4.0 6.0 0.00 0.16 0.16 88 1011.9
20260506161256 60 49 7.0 10.0 0.00 0.16 0.16 88 1011.6
20260506160753 60 358 9.0 16.0 0.00 0.16 0.16 89 1012.0
20260506160250 60 341 5.0 6.0 0.00 0.16 0.16 89 1012.0
20260506155749 60 332 6.0 10.0 0.00 0.16 0.16 89 1012.0
20260506155245 60 64 10.0 13.0 0.00 0.16 0.16 89 1012.2
20260506153352 60 319 8.0 10.0 0.00 0.16 0.16 90 1011.8
20260506152849 59 321 15.0 18.0 0.00 0.16 0.16 90 1011.8
20260506152346 59 304 15.0 21.0 0.00 0.16 0.16 91 1012.2
20260506151845 59 332 6.0 10.0 0.00 0.16 0.16 91 1012.1
20260506151341 59 309 9.0 13.0 0.00 0.16 0.16 91 1012.4
20260506150838 59 2 4.0 5.0 0.00 0.16 0.16 91 1012.3
20260506150335 59 26 14.0 18.0 0.07 0.16 0.16 91 1012.0
20260506145832 59 277 14.0 18.0 0.07 0.16 0.16 91 1012.3
20260506145328 59 38 9.0 13.0 0.12 0.16 0.16 91 1012.6
20260506144826 59 45 15.0 18.0 0.12 0.15 0.15 91 1012.6
20260506144322 59 321 11.0 14.0 0.07 0.14 0.14 91 1012.7
20260506143821 59 324 7.0 8.0 0.00 0.13 0.13 91 1012.9
20260506143317 59 0 8.0 10.0 0.00 0.13 0.13 91 1012.8
20260506142815 59 358 13.0 16.0 0.00 0.13 0.13 91 1012.6
20260506142313 59 331 14.0 19.0 0.07 0.13 0.13 91 1012.8
20260506141811 59 314 6.0 8.0 0.07 0.13 0.13 91 1012.3
20260506141309 59 3 11.0 13.0 0.00 0.12 0.12 91 1012.6
20260506140807 59 302 8.0 13.0 0.00 0.12 0.12 91 1012.4
20260506140303 59 314 8.0 10.0 0.00 0.12 0.12 91 1012.6
20260506135800 59 0 8.0 10.0 0.05 0.12 0.12 91 1012.4
20260506135256 59 359 5.0 6.0 0.12 0.12 0.12 90 1012.7
20260506134753 59 298 7.0 10.0 0.12 0.11 0.11 90 1012.6
20260506134250 59 352 6.0 8.0 0.12 0.11 0.11 90 1012.5
20260506133747 59 323 10.0 13.0 0.12 0.10 0.10 90 1012.4
20260506133243 59 346 9.0 16.0 0.07 0.09 0.09 90 1012.8
20260506132740 59 358 11.0 13.0 0.05 0.08 0.08 90 1013.1
20260506132238 59 45 10.0 13.0 0.05 0.08 0.08 90 1013.2
20260506131736 59 349 9.0 11.0 0.00 0.07 0.07 90 1013.0
20260506131231 59 59 7.0 10.0 0.07 0.07 0.07 90 1012.9
20260506130728 59 326 6.0 11.0 0.07 0.07 0.07 90 1012.7
20260506130225 59 354 9.0 13.0 0.00 0.06 0.06 90 1013.0
20260506125723 59 88 3.0 5.0 0.05 0.06 0.06 90 1012.9
20260506125221 59 76 5.0 6.0 0.05 0.06 0.06 89 1012.8
20260506124719 59 284 4.0 6.0 0.07 0.05 0.05 89 1012.7
20260506124217 59 339 5.0 6.0 0.12 0.05 0.05 88 1012.7
20260506123713 60 19 5.0 6.0 0.12 0.04 0.04 88 1012.8
20260506123213 60 328 6.0 8.0 0.12 0.03 0.03 87 1012.9
20260506122709 60 8 7.0 8.0 0.05 0.02 0.02 86 1012.6
20260506122206 60 267 7.0 10.0 0.07 0.01 0.01 85 1013.0
20260506121704 60 255 5.0 6.0 0.07 0.01 0.01 84 1012.9
20260506121200 61 266 7.0 10.0 0.00 0.00 0.00 83 1013.0